Regional Weather Roundup
Issued by NWS Kansas City/Pleasant Hill, MO

Home | Current Version | Previous Version | Graphics & Text | Print | Product List | Glossary Off
Versions: 1 2 3 4 5 6 7 8 9 10 11 12 13 14 15 16 17 18 19 20 21 22 23 24 25 26 27 28 29 30 31 32 33 34 35 36 37 38 39 40 41 42 43 44 45 46 47 48 49 50

752
ASUS43 KEAX 101510
RWREAX

WEATHER ROUNDUP FOR EASTERN KANSAS AND NORTHWEST MISSOURI
NATIONAL WEATHER SERVICE KANSAS CITY/PLEASANT HILL MO
900 AM CST WED FEB 10 2016

KSZ040-057-103>105-MOZ028-029-037-043-101600-
...KANSAS CITY METROPOLITAN AREA...

CITY           SKY/WX    TMP DP  RH WIND       PRES   REMARKS
K.C. INTL      CLOUDY    29  15  56 S15       30.09F WCI  18
K.C. DOWNTOWN  CLOUDY    31  13  47 S13       30.12F WCI  21
LEES SUMMIT    CLOUDY    29  14  53 S12       30.12F WCI  19
OLATHE - IXD   SUNNY     28  14  55 S12G23    30.12F WCI  18
OLATHE - OJC   MOSUNNY   25  14  63 S9        30.11F WCI  15
LAWRENCE       SUNNY     29  15  56 S10       30.11F WCI  20

$$

MOZ001>008-011>017-020>025-030>033-038>040-044>046-053-054-101600-
...NORTHERN AND CENTRAL MISSOURI...

CITY           SKY/WX    TMP DP  RH WIND       PRES   REMARKS
ST. JOSEPH     CLOUDY    28  15  58 S12       30.10F WCI  18
MOSBY          CLOUDY    28  18  64 CALM      30.13S
WARRENSBURG    CLOUDY    27  18  69 S5        30.15F WCI  21
WHITEMAN AFB   FLURRIES  26  15  64 SW8       30.14F WCI  17
CLINTON          N/A     28  19  69 S7        30.17F WCI  21
SEDALIA        LGT SNOW  23  15  71 SW6       30.17S WCI  16
WARSAW         NOT AVBL
CHILLICOTHE      N/A     22  17  81 S5        30.15S WCI  16
KIRKSVILLE     LGT SNOW  17   8  67 SW3       30.13F

$$

MOZ041-047>049-056>058-063>065-088>090-097-101600-
...EASTERN AND SOUTHERN MISSOURI...

CITY           SKY/WX    TMP DP  RH WIND       PRES   REMARKS
ST. LOUIS INTL PTSUNNY   20   7  57 W10       30.19R WCI   9
SPIRIT OF STL  CLOUDY    19   9  65 W6        30.19S WCI  11
COLUMBIA       CLOUDY    20  13  74 SW5       30.16R WCI  13
JEFFERSON CITY CLOUDY    20  12  71 CALM      30.20S
ROLLA          CLOUDY    19  10  68 SW5       30.14R WCI  12
OSAGE BEACH    CLOUDY    21  10  63 CALM      30.18S
SPRINGFIELD    SUNNY     26  10  50 SW9       30.17F WCI  17
BRANSON        MOSUNNY   25   9  50 SW6       30.24R WCI  18
JOPLIN         SUNNY     28  11  48 S12       30.19R WCI  18
WEST PLAINS    PTSUNNY   23   8  52 W9        30.19R WCI  13

$$

IAZ060-094-KSZ022-034>040-054-083-096-NEZ052-066-093-101600-
...KANSAS...SOUTHEAST NEBRASKA AND IOWA...

CITY           SKY/WX    TMP DP  RH WIND       PRES   REMARKS
TOPEKA         SUNNY     29  12  49 S14G21    30.08F WCI  18
MANHATTAN      SUNNY     32  18  56 SW17      30.03F WCI  21
EMPORIA        SUNNY     29  12  49 S24G31    30.07F WCI  15
CHANUTE        SUNNY     29  12  49 SW22G28   30.15F WCI  15
WICHITA        MOSUNNY   30  16  56 S15       30.12F WCI  19
OMAHA          CLOUDY    28  19  69 S14       30.00S WCI  17
LINCOLN        CLOUDY    28  18  66 S13       29.96F WCI  17
FALLS CITY     MOSUNNY   29  15  56 S9        30.04F WCI  20
LAMONI         CLOUDY    21  16  81 S5        30.08S WCI  15
DES MOINES     LGT SNOW  16  11  80 VRB5      30.09F VSB 3/4 WCI   9

$$





USA.gov is the U.S. government's official web portal to all federal, state and local government web resources and services.